www.pogodaiklimat.ru

Погода и климат >> Архив погоды >> Россия >> Магаданская область >> Сусуман


АРХИВ ПОГОДЫ в Сусумане

Время (UTC), дата Ветер
(напр.,м/с)
 
Видим.   Явления Облачность Т
(С)
Тd
(С)
f
(%)
Тe
(С)
Тes
(С)
Комфортность P
(гПа)
Po
(гПа)
Тmin
(С)
Tmax
(С)
R
(мм)
R24
(мм)
S
(см)
21 14.04 СВ 3 50 км 4/0
[Ci fib]
-12.7 -16.3 74 -19 -18 1013.8 930.9 -19.2 16
00 15.04 ЮЗ 6
{10}
50 км 10/3 1000 м
[Sc Cs]
-3.8 -11.8 54 -11 -9 1011.0 931.0
03 15.04 Ю 4
{12}
50 км 9/3 1000 м
[Cb cap Ac trans Ci fib]
-3.4 -11.5 53 -9 -7 1011.3 931.4
06 15.04 ЮЗ 5 50 км 9/4 600 м
[Cb cap Ac trans Ci fib]
-2.8 -10.5 55 -9 -8 1010.6 930.9
09 15.04 Ю 3 50 км 3/3 1000 м
[Sc]
-4.0 -11.9 54 -9 -9 1011.6 931.5 -2.5
12 15.04 Ю 3 50 км 6/3 1000 м
[Sc Ac trans]
-6.8 -11.6 69 -12 -12 1013.4 932.4
15 15.04 СВ 1 50 км 3/1 1000 м
[Sc Ac trans]
-10.1 -12.5 83 -12 -12 1014.7 932.6
18 15.04 штиль 0 50 км 4/1 1000 м
[Sc Ac trans Ci fib]
-13.6 -14.7 91 -14 -14 1016.7 933.3
21 15.04 ЮЗ 1 50 км 3/3 1000 м
[Sc]
-11.2 -13.6 82 -13 -12 1016.7 934.1 -14.9 15
00 16.04 Ю 5 50 км 9/4 1000 м
[Sc Ac trans Cs]
-4.3 -11.7 56 -11 -10 1015.0 934.5
03 16.04 ЮЗ 5
{10}
50 км 9/3 1000 м
[Cb cap Ac trans Cs]
-2.5 -11.4 50 -8 -7 1014.0 934.1
06 16.04 ЮЗ 5 50 км 9/8 960 м
[Cb cap Ci fib]
-2.2 -11.3 50 -8 -8 1014.0 934.2
09 16.04 Ю 4 50 км 9/3 1000 м
[Cb cap Ac trans Ci fib]
-3.5 -11.2 55 -9 -9 1015.3 935.1 -1.6
12 16.04 Ю 2 50 км 9/0
[Ac trans Cs]
-7.1 -12.6 65 -11 -11 1017.5 936.0
15 16.04 С 1 50 км 10/0
[Ac trans Cs]
-8.6 -12.1 76 -11 -11 1018.3 936.3
18 16.04 СВ 2 50 км 10/0
[Ac trans Cs]
-8.7 -11.8 78 -13 -13 1018.2 936.2
21 16.04 СВ 4 50 км 10/3 1000 м
[Sc Ac As]
-5.8 -10.8 68 -12 -12 1015.6 934.7 -9.1 15
00 17.04 С 3 50 км 10/6 960 м
[Sc Ac As]
-2.2 -8.7 61 -7 -6 1013.5 933.8
03 17.04 ЮВ 3 50 км 9/6 960 м
[Cb cap Ac As]
+0.4 -6.1 62 -4 -2 1012.5 933.6
06 17.04 ЮВ 3 50 км 10/4 1000 м
[Cb cap Ac As]
+1.0 -5.0 64 -3 -2 1011.5 932.9
09 17.04 С 2 50 км 9/3 1000 м
[Cb cap Ac trans Ci fib]
-0.3 -5.3 69 -4 -4 1011.3 932.3 +1.0
12 17.04 С 3 50 км 9/0
[Ac trans Cs]
-0.9 -4.5 77 -6 -6 1010.6 931.6
15 17.04 ЮЗ 1 20 км слаб. ливневой снег 10/8 1000 м
[Cb cap Ac As]
-0.9 -4.0 79 -3 -3 1009.5 930.5
18 17.04 СВ 2 10 км слаб. ливневой снег 10/6 900 м
[Cb cap Ac As]
-2.8 -3.7 94 -7 -7 1008.8 929.3
21 17.04 Ю 1 50 км {ливн. осадки} 10/10 840 м
[Cb cap]
-1.4 -4.5 79 -3 -3 1008.1 929.1 -3.1 0.5 15
00 18.04 Ю 5
{10}
50 км {ливн. осадки, метель} 9/9 700 м
[Cb cap]
-1.1 -5.0 75 -7 -7 1008.5 929.5
03 18.04 ЮЗ 6
{10}
50 км 8/3 600 м
[Cb cap Ac trans]
+0.2 -8.4 52 -6 -4 1009.1 930.4
06 18.04 ЮЗ 5
{11}
50 км 8/6 900 м
[Cb cap Ac trans]
+0.1 -9.6 48 -5 -5 1010.2 931.3
09 18.04 Ю 4 50 км 6/3 1000 м
[Sc Ac trans]
-0.6 -9.3 52 -6 -5 1012.4 933.2 +0.9 0.2
12 18.04 штиль 0 50 км 4/0
[Ac trans]
-4.7 -9.3 70 -5 -5 1015.7 935.1
15 18.04 ЮЗ 3 50 км 8/0
[Ac trans Ci fib]
-6.3 -9.4 79 -12 -12 1018.0 936.8
18 18.04 ЮЗ 2 50 км 3/0
[Ci fib]
-8.7 -10.1 90 -13 -13 1020.1 938.0
21 18.04 СВ 2 50 км 10/3 1000 м
[Sc As trans]
-6.8 -9.7 80 -11 -11 1020.9 939.3 -8.7 14
00 19.04 штиль 0 10 км слаб. ливневой снег 10/8 960 м
[Cb cap As op]
-2.4 -5.8 77 -3 -3 1019.9 939.6
03 19.04 СВ 1 10 км слаб. ливневой снег 10/10 840 м
[Cb cap]
-1.0 -4.3 78 -3 -3 1018.9 939.1
06 19.04 ЮЗ 1 50 км в посл. час ливневой снег 10/10 870 м
[Cb cap]
-1.0 -4.4 78 -3 -3 1018.6 938.9
09 19.04 Ю 2 50 км в посл. час ливневой снег 10/10 900 м
[Cb cap]
-2.6 -5.1 83 -7 -7 1019.9 939.6 -0.6 1
12 19.04 штиль 0 10 км слаб. ливневой снег 10/10 800 м
[Cb cap]
-4.0 -4.6 96 -5 -5 1020.0 939.3
15 19.04 СВ 1 2000 м ливневой снег 10/10 660 м
[Cb cap]
-4.1 -4.7 96 -7 -7 1019.1 938.4
18 19.04 С 1 10 км слаб. ливневой снег 10/10 700 м
[Cb cap]
-4.0 -4.5 96 -6 -6 1017.9 937.3
21 19.04 ЮЗ 2 2000 м ливневой снег 10/10 600 м
[Cb cap]
-3.4 -4.1 95 -8 -8 1018.7 938.2 -4.2 4 17
00 20.04 ЮЗ 3 2000 м ливневой снег 10/10 700 м
[Cb cap]
-0.6 -2.2 89 -5 -5 1018.5 938.9
03 20.04 ЮЗ 4 50 км {ливн. осадки} 8/6 930 м
[Cb cap Ac trans]
+0.8 -5.0 65 -4 -2 1018.4 939.2
06 20.04 ЮЗ 3 50 км {ливн. осадки} 9/4 600 м
[Cb cap Ac trans Ci sp]
+0.7 -4.1 70 -4 -2 1018.7 939.4
09 20.04 Ю 2 50 км 9/5 1000 м
[Cb cap Ac trans Ci sp]
-0.8 -3.0 85 -5 -4 1019.7 940.0 +1.3 2
12 20.04 Ю 1 50 км 10/6 960 м
[Cb cap Ac As]
-1.5 -4.1 82 -4 -4 1020.4 940.4
15 20.04 Ю 1 50 км 9/5 900 м
[Cb cap Ac trans]
-2.5 -4.6 85 -5 -5 1020.3 940.0
18 20.04 ЮЗ 1 50 км 10/6 960 м
[Cb cap Ac As]
-3.0 -5.2 85 -5 -5 1020.8 940.3
21 20.04 Ю 3 50 км 9/8 1000 м
[Sc Ac trans]
-1.9 -6.1 73 -7 -6 1020.3 940.2 -3.2 16
00 21.04 ЮЗ 4 50 км 9/3 600 м
[Cb cap Ac trans Cs]
+0.2 -6.0 63 -5 -3 1019.0 939.5
03 21.04 ЮЗ 5 50 км 9/4 1000 м
[Sc Ac trans Cs]
+1.2 -6.6 56 -4 -2 1017.6 938.5
06 21.04 ЮЗ 4 50 км 8/3 1000 м
[Sc Ac trans Ci fib]
+2.2 -6.1 54 -2 -1 1016.7 937.9
09 21.04 Ю 4 50 км 9/4 600 м
[Cb cap Ac trans Ci fib]
+0.6 -5.2 65 -4 -4 1017.3 938.1 +2.5
12 21.04 ЮЗ 2 50 км 9/5 1000 м
[Cb cap Ac trans Ci fib]
-2.1 -5.8 76 -6 -6 1018.7 938.6
15 21.04 З 1 50 км 9/6 1020 м
[Sc Ac trans Ci fib]
-3.8 -6.5 81 -6 -6 1018.8 938.2
18 21.04 ЮЗ 1 50 км 9/9 1140 м
[Sc]
-4.0 -6.1 85 -6 -6 1018.2 937.7

 

Местоположение метеостанции Сусуман (Магаданская область, Россия): широта 62.78 долгота 148.10 высота над уровнем моря 655 м.

В архиве по умолчанию представлена погода в Сусумане за последнюю неделю. Архивные данные за месяц целиком и за предыдущие месяцы, начиная с января 2011 года, Вы можете получить, выбрав интересующий диапазон дат из раскрывающегося списка и нажав кнопку "Ввод!".


*Определитесь, кто Вы:
робот инопланетянин человек

Внимание! Время в таблицах - всемирное. Для получения местного времени необходимо прибавить поправку, которая равна 11 ч.

Смотрите также архив погоды в соседних городах и на ближайших метеорологических станциях:

Погода в Ягодной (Магаданская область, Россия) (82 км)
Погода на Озере Джека Лондона (Магаданская область, Россия) (106 км)
Погода в Колымской (Магаданская область, Россия) (107 км)
Погода в Совхозе Эльген (Магаданская область, Россия) (127 км)
Погода в Усть-Бохапче (Магаданская область, Россия) (149 км)
Погода в Делянкире (Якутия, Россия) (171 км)
Погода в Усть-Омчуге (Магаданская область, Россия) (201 км)
Погода в Среднекане (Магаданская область, Россия) (218 км)
Погода в Сеймчане (Магаданская область, Россия) (219 км)
Погода в Оймяконе (Якутия, Россия) (258 км)

Пояснения к столбцам:

Ветер - указаны скорость ветра в м/с - средняя за 10 мин, порывы в срок и между сроками (в фигурных скобках) и направление, откуда дует ветер: С - северный, СВ - северо-восточный, В - восточный, ЮВ - юго-восточный, Ю - южный, ЮЗ - юго-западный, З - западный, СЗ - северо-западный.
Видимость - горизонтальная дальность видимости в метрах или километрах. При видимости от 1 до 10 км при отсутствии осадков обычно наблюдается дымка, при ухудшении видимости до 1 км и менее - туман. В сухую погоду видимость может ухудшаться дымом, пылью или мглою.
Явления - указаны атмосферные явления, наблюдавшиеся в срок или в последний час перед сроком; фигурными скобками обозначены явления, наблюдавшиеся между сроками (за 1-3 часа до срока); квадратными скобками обозначены град или гололедные отложения с указанием их диаметра в мм.
Облачность - указаны через наклонную черту общая и нижняя облачность в баллах и высота нижней границы облаков в метрах; квадратными скобками обозначены формы облаков: Ci - перистые, Cs - перисто-слоистые, Cc - перисто-кучевые, Ac - высококучевые, As - высокослоистые, Sc - слоисто-кучевые, Ns - слоисто-дождевые, Cu - кучевые, Cb - кучево-дождевые. Подробнее классификацию облаков см. в Атласе облаков (PDF).
T - Температура воздуха - температура, измеренная на высоте 2 м над землей.
Td - Температура точки росы - температура, при понижении до которой содержащийся в воздухе водяной пар достигнет насыщения.
f - Относительная влажность воздуха - влажноcть воздуха, измеренная на высоте 2 м над землей.
Te - Эффективная температура - температура, которую ощущает одетый по сезону человек в тени. Характеристика душности погоды. При расчете учитывается влияние влажности воздуха и скорости ветра на теплоощущения человека.
Tes - Эффективная температура на солнце - температура, которую ощущает человек, с поправкой на солнечный нагрев. Характеристика знойности погоды. Зависит от высоты солнца над горизонтом, облачности и скорости ветра. Ночью, в пасмурную погоду, а также при ветре 12 м/с и более поправка равна нулю.
P - Атмосферное давление - приведенное к уровню моря атмосферное давление.
Po - Атмосферное давление - измеренное на уровне метеостанции атмосферное давление.
Tmin - Минимальная температура - минимум температуры воздуха на высоте 2 м над землей.
Tmax - Максимальная температура - максимум температуры воздуха на высоте 2 м над землей.
R - Количество осадков - Количество выпавших осадков за период времени, мм. При наведении курсора мыши на число - период времени, за который выпало указанное количество осадков.
R24 - Количество осадков - Количество выпавших осадков за 24 часа, мм.
S - Снежный покров - Высота снежного покрова, см. При наведении курсора мыши на число - состояние снежного покрова и степень покрытия местности в баллах.